Location: Hastringsfeld
(50.9620°N, 10.4787°E)
Time: 19:27:18
(UTC+00:00)

Cosmos 1408 Rocket - Pass Details

Date: 26 September 2023
Orbit: 598 x 628 km, 82.6° (Epoch: 09 December)

Event Time Altitude Azimuth Distance (km) Brightness Sun altitude
Rises 03:14:13 0° 351° (N) 2,888 7.2 -18.6°
Reaches altitude 10° 03:16:28 10° 354° (N) 1,984 6.3 -18.3°
Maximum altitude 03:20:50 67° 78° (ENE) 674 3.9 -17.6°
Drops below altitude 10° 03:25:13 10° 161° (SSE) 1,987 6.1 -17.0°
Sets 03:27:28 0° 164° (SSE) 2,892 7.0 -16.7°
